Location: Gleizolles
(44.4833°N, 6.7667°E)
Time: 16:22:26
(UTC+00:00)

Altair - Pass Details

Date: 28 June 2024
Orbit: 1502 x 1681 km, 47.2° (Epoch: 13 July)

Event Time Altitude Azimuth Distance (km) Brightness Sun altitude
Rises 02:57:09 0° 277° (W) 4,650 9.7 -8.2°
Reaches altitude 10° 03:00:09 10° 279° (W) 3,681 9.1 -7.8°
Maximum altitude 03:09:29 77° 6° (N) 1,590 7.7 -6.6°
Drops below altitude 10° 03:19:09 10° 92° (E) 3,806 10.3 -5.3°
Sets 03:22:19 0° 94° (E) 4,816 10.9 -4.9°
